EW9501 Weather Reports


time (UTC)temp
C
wind
direction
speed
KPH
gust
KPH
rain 1hr
cm
rain 24hr
cm
rain mn
cm
humidity
%
barometer
mb
20260508184527 14 0.0 0.0 0.00 0.05 0.05 72 1009.3
20260508183032 15 0.0 0.0 0.00 0.05 0.05 66 1009.5
20260508181526 15 0.0 0.0 0.00 0.05 0.05 65 1009.3
20260508180025 16 0.0 0.0 0.00 0.05 0.05 64 1009.8
20260508174522 15 0.0 0.0 0.00 0.05 0.05 63 1009.6
20260508173019 15 0.0 0.0 0.00 0.05 0.05 67 1010.1
20260508171518 15 0.0 0.0 0.00 0.05 0.05 68 1010.2
20260508170015 13 0.0 0.0 0.00 0.05 0.05 73 1010.5
20260508164516 13 0.0 0.0 0.00 0.05 0.05 78 1010.9
20260508163010 12 0.0 0.0 0.00 0.05 0.05 77 1011.1
20260508161509 12 0.0 0.0 0.00 0.05 0.05 75 1011.2
20260508160014 12 0.0 0.0 0.00 0.05 0.05 72 1011.2
20260508154508 12 0.0 0.0 0.00 0.05 0.05 72 1011.3
20260508153008 12 0.0 0.0 0.00 0.05 0.05 71 1011.2
20260508151509 12 0.0 0.0 0.00 0.05 0.05 71 1010.9
20260508150018 13 0.0 0.0 0.00 0.05 0.05 69 1011.1
20260508144505 13 0.0 0.0 0.00 0.05 0.05 69 1011.1
20260508143005 13 0.0 0.0 0.00 0.05 0.05 69 1011.2
20260508141502 12 0.0 0.0 0.00 0.05 0.05 72 1010.9
20260508140107 12 0.0 0.0 0.00 0.05 0.05 73 1011.0
20260508134605 12 0.0 0.0 0.00 0.05 0.05 73 1011.4
20260508133056 12 0.0 0.0 0.00 0.05 0.05 75 1011.4
20260508131554 11 0.0 0.0 0.00 0.05 0.05 75 1011.2
20260508130051 11 0.0 0.0 0.00 0.05 0.05 77 1011.1
20260508124548 10 0.0 0.0 0.00 0.05 0.05 78 1011.3
20260508123044 10 0.0 0.0 0.00 0.05 0.05 78 1011.3
20260508121543 9 0.0 0.0 0.00 0.05 0.05 81 1011.4
20260508120044 9 0.0 0.0 0.00 0.05 0.05 82 1011.1
20260508114551 8 0.0 0.0 0.00 0.05 0.05 84 1010.9
20260508113044 8 0.0 0.0 0.00 0.05 0.05 84 1010.6
20260508111557 7 0.0 0.0 0.00 0.05 0.05 85 1010.5
20260508110041 7 0.0 0.0 0.00 0.05 0.05 86 1010.3
20260508104540 7 0.0 0.0 0.00 0.05 0.05 85 1010.5
20260508103039 7 0.0 0.0 0.00 0.05 0.05 84 1010.3
20260508101538 7 0.0 0.0 0.00 0.05 0.05 84 1010.3
20260508100037 8 0.0 0.0 0.05 0.05 0.05 83 1010.2
20260508094535 8 0.0 0.0 0.05 0.05 0.05 83 1010.2
20260508093035 8 0.0 0.0 0.05 0.05 0.05 85 1010.4
20260508091543 8 0.0 0.0 0.05 0.05 0.05 85 1010.3
20260508090035 8 0.0 0.0 0.00 0.00 0.00 84 1010.5
20260508084533 8 0.0 0.0 0.00 0.00 0.00 84 1010.5
20260508083034 8 0.0 0.0 0.00 0.00 0.00 82 1010.4
20260508081543 8 0.0 0.0 0.00 0.00 0.00 82 1010.5
20260508080031 8 0.0 0.0 0.00 0.00 0.00 84 1010.5
20260508074529 7 0.0 0.0 0.00 0.00 0.00 85 1010.6
20260508073028 7 0.0 0.0 0.00 0.00 0.00 85 1010.7
20260508071527 7 0.0 0.0 0.00 0.00 0.00 84 1010.7
20260508070025 7 0.0 0.0 0.00 0.00 0.00 83 1010.8
20260508064527 7 0.0 0.0 0.00 0.00 0.00 82 1011.0
20260508063022 7 0.0 0.0 0.00 0.00 0.00 81 1011.1
20260508061520 8 0.0 0.0 0.00 0.00 0.00 80 1011.1
20260508060018 8 0.0 0.0 0.00 0.00 0.00 79 1011.1
20260508054516 8 0.0 0.0 0.00 0.00 0.00 76 1011.3
20260508053015 9 0.0 0.0 0.00 0.00 0.00 74 1011.3
20260508051526 9 0.0 0.0 0.00 0.00 0.00 72 1011.2
20260508050012 9 0.0 0.0 0.00 0.00 0.00 71 1011.2
20260508044511 9 0.0 0.0 0.00 0.00 0.00 71 1011.3
20260508043017 8 0.0 0.0 0.00 0.00 0.00 73 1011.5
20260508041509 8 0.0 0.0 0.00 0.00 0.00 73 1011.3
20260508040005 8 0.0 0.0 0.00 0.00 0.00 74 1011.3
20260508034504 8 0.0 0.0 0.00 0.00 0.00 74 1011.5
20260508033003 8 0.0 0.0 0.00 0.00 0.00 74 1011.6
20260508031503 8 0.0 0.0 0.00 0.00 0.00 71 1011.7
20260508030003 9 0.0 0.0 0.00 0.00 0.00 68 1011.8
20260508024502 10 0.0 0.0 0.00 0.00 0.00 66 1012.0
20260508023002 10 0.0 0.0 0.00 0.00 0.00 64 1012.0
20260508021501 10 0.0 0.0 0.00 0.00 0.00 63 1012.0
20260508020004 10 0.0 0.0 0.00 0.00 0.00 62 1012.0
20260508014601 10 0.0 0.0 0.00 0.00 0.00 59 1012.0
20260508013100 11 0.0 0.0 0.00 0.00 0.00 56 1012.1
20260508011609 11 0.0 0.0 0.00 0.00 0.00 54 1011.7
20260508010059 11 0.0 0.0 0.00 0.00 0.00 50 1011.6
20260508004600 12 0.0 0.0 0.00 0.00 0.00 47 1011.3
20260508003059 12 0.0 0.0 0.00 0.00 0.00 43 1011.1
20260508001559 13 0.0 0.0 0.00 0.00 0.00 42 1010.9
20260508000100 13 0.0 0.0 0.00 0.00 0.00 41 1010.9
20260507234559 13 0.0 0.0 0.00 0.00 0.00 40 1010.8
20260507233056 13 0.0 0.0 0.00 0.00 0.00 39 1010.9
20260507231559 13 0.0 0.0 0.00 0.00 0.00 38 1010.9
20260507230054 14 0.0 0.0 0.00 0.00 0.00 35 1010.9
20260507224558 13 0.0 0.0 0.00 0.00 0.00 37 1011.0
20260507223057 14 0.0 0.0 0.00 0.00 0.00 38 1011.2
20260507221553 14 0.0 0.0 0.00 0.00 0.00 37 1011.2
20260507220052 13 0.0 0.0 0.00 0.00 0.00 36 1011.2
20260507214551 13 0.0 0.0 0.00 0.00 0.00 37 1011.1
20260507213051 13 0.0 0.0 0.00 0.00 0.00 38 1011.1
20260507211551 15 0.0 0.0 0.00 0.00 0.00 36 1011.2
20260507210050 14 0.0 0.0 0.00 0.00 0.00 37 1011.2
20260507204553 13 0.0 0.0 0.00 0.00 0.00 38 1011.2
20260507203049 13 0.0 0.0 0.00 0.00 0.00 38 1011.3
20260507201558 15 0.0 0.0 0.00 0.00 0.00 39 1011.2
20260507200046 13 0.0 0.0 0.00 0.00 0.00 39 1011.1
20260507194546 14 0.0 0.0 0.00 0.00 0.00 39 1011.1
20260507193050 14 0.0 0.0 0.00 0.00 0.00 39 1011.3
20260507191543 13 0.0 0.0 0.00 0.00 0.00 38 1011.4
20260507190043 13 0.0 0.0 0.00 0.00 0.00 39 1011.5